STARLINK-4647, 53608

Orbit data source: Space-Track

STARLINK-4647, 53608 is a payload satellite owned by SpaceX/Seattle (US) in LEO that was launched on Sun, 28 Aug 2022 UTC via an FALCON 9 launch vehicle from the Air Force Eastern Test Range (AFETR). Payload-class satellites include a variety of spacecraft equipped with specific instruments for various scientific and technological missions. These include communications satellites like Starlink; space stations such as the ISS; scientific satellites like the Hubble; Earth observation satellites from companies like Planet Labs, Umbra, and HawkEye 360; GPS; miniature CubeSats for education and research; and military/defense satellites.

Loading next visibility...
Identifier
53608, 2022-104W
Orbit
LEO
Country
Flag of USUS
Related business
Manufacturer
SpaceX/Seattle
Mission
Operational Commercial Communications
Bus & Motor
STARLINK, Unknown motor
Mass
300 kg wet, ~290 kg dry
Launch date (UTC)
2022-08-28 (3 years ago)
Launch vehicle
FALCON 9
Launch site
Air Force Eastern Test Range (AFETR)
Object type
Payload
Rocket body
Debris
Shape & HBR
Box + 1 Pan, 10.1 m
Radar Cross Section
13.562 m², Large (>1 m²)

Expand to show TLE details & history
Last TLE update: 2 days ago

TLE from 2 days ago
0 STARLINK-4647
1 53608U 22104W   25299.76118565 -.00000014  00000-0  17235-4 0  9995
2 53608  53.2166 115.5384 0001343  93.8901 266.2245 15.08841731175418
Epoch: 2025-10-26T18:16Z
TLE epoch observation values (Epoch: 2025-10-26T18:16:06.440Z)
Latitude
0.00002°
Longitude
166.13883°
Altitude
540.697 km
Speed
7.593 km/s
True Right ascension
07h 42m 09s
True Declination
0° 00' 00"
Sunlit
Object was in daylight at epoch
Visualization orbit readout
Latitude
Unknown
Longitude
Unknown
Altitude
Unknown
Speed
Unknown
Apparent Right ascension
Unknown
Apparent Declination
Unknown
Sunlit
N/A
Visualization observer readout
Local Sidereal Time
07:01:33
Azimuth
Unknown
Elevation
Unknown
Doppler factor
Unknown
Orbital elements
Apogee altitude
540.912 km
Perigee altitude
539.054 km
Semi-major axis
6,918.12 km
Eccentricity
0.00013
Inclination
53.2166°
RAAN
115.5384°
Arg. of periapsis
93.8901°
True anomaly
266.20914°
Mean anomaly
266.2245°
Eccentric anomaly
266.21682°
Mean motion
3.77191 °/min
Orbital period
95.44 mins
BSTAR
0.000017235
Loading maneuver chart data...
Computing Atmospheric mass density...
Loading historical data...
Loading historical data...
Loading historical data...
Loading historical data...
Loading historical data...
Loading historical data...
Loading historical data...

Documentation

Showing up to 5 results
|